| time (UTC) | temp F | wind direction | speed knots | gust knots | rain 1hr in | rain 24hr in | rain mn in | humidity % | barometer mb |
| 20260505140547 | 53 | 0 | 0.9 | 7.0 | 0.00 | 0.16 | 0.09 | 96 | 1009.5 |
| 20260505140111 | 53 | 0 | 0.0 | 0.0 | 0.00 | 0.16 | 0.09 | 96 | 1009.5 |
| 20260505124607 | 54 | 0 | 0.0 | 2.6 | 0.00 | 0.16 | 0.09 | 96 | 1009.9 |
| 20260505124047 | 54 | 0 | 0.0 | 2.6 | 0.00 | 0.16 | 0.09 | 95 | 1010.0 |
| 20260505123546 | 54 | 0 | 0.0 | 0.0 | 0.00 | 0.16 | 0.09 | 96 | 1009.9 |
| 20260505123054 | 54 | 0 | 0.0 | 4.3 | 0.00 | 0.16 | 0.09 | 96 | 1009.9 |
| 20260505122547 | 55 | 0 | 0.0 | 4.3 | 0.00 | 0.16 | 0.09 | 96 | 1009.9 |
| 20260505122044 | 55 | 332 | 0.0 | 4.3 | 0.00 | 0.16 | 0.09 | 95 | 1009.9 |
| 20260505121557 | 55 | 0 | 0.0 | 4.3 | 0.00 | 0.16 | 0.09 | 96 | 1009.9 |
| 20260505121044 | 55 | 0 | 0.0 | 2.6 | 0.00 | 0.16 | 0.09 | 96 | 1009.9 |
| 20260505120546 | 55 | 0 | 0.0 | 2.6 | 0.00 | 0.16 | 0.09 | 96 | 1009.9 |
| 20260505120057 | 55 | 0 | 0.0 | 2.6 | 0.00 | 0.16 | 0.09 | 96 | 1009.9 |
| 20260505115545 | 55 | 0 | 0.0 | 0.9 | 0.00 | 0.16 | 0.09 | 96 | 1009.9 |
| 20260505115048 | 55 | 0 | 0.0 | 0.9 | 0.00 | 0.16 | 0.09 | 96 | 1010.0 |
| 20260505114559 | 55 | 0 | 0.0 | 0.0 | 0.00 | 0.16 | 0.09 | 96 | 1010.0 |
| 20260505114047 | 55 | 0 | 0.0 | 0.9 | 0.01 | 0.16 | 0.09 | 95 | 1010.0 |
| 20260505113547 | 55 | 0 | 0.0 | 1.7 | 0.01 | 0.16 | 0.09 | 96 | 1010.0 |
| 20260505113100 | 55 | 0 | 0.0 | 1.7 | 0.02 | 0.16 | 0.09 | 96 | 1010.0 |
| 20260505112546 | 55 | 0 | 0.0 | 5.2 | 0.03 | 0.16 | 0.09 | 96 | 1010.1 |
| 20260505112047 | 55 | 0 | 0.0 | 5.2 | 0.03 | 0.16 | 0.09 | 95 | 1010.1 |
| 20260505111553 | 55 | 0 | 0.0 | 5.2 | 0.03 | 0.16 | 0.09 | 95 | 1010.0 |
| 20260505111048 | 55 | 0 | 0.0 | 4.3 | 0.03 | 0.16 | 0.09 | 95 | 1010.0 |
| 20260505110545 | 55 | 0 | 0.0 | 4.3 | 0.03 | 0.16 | 0.09 | 95 | 1010.1 |
| 20260505102045 | 55 | 0 | 0.0 | 4.3 | 0.03 | 0.12 | 0.05 | 95 | 1010.5 |
| 20260505101554 | 55 | 337 | 0.0 | 3.5 | 0.03 | 0.12 | 0.05 | 95 | 1010.4 |
| 20260505101044 | 55 | 0 | 0.0 | 3.5 | 0.04 | 0.12 | 0.05 | 95 | 1010.4 |
| 20260505100544 | 55 | 0 | 0.0 | 3.5 | 0.04 | 0.12 | 0.05 | 95 | 1010.4 |
| 20260505100049 | 55 | 0 | 0.0 | 3.5 | 0.04 | 0.12 | 0.05 | 95 | 1010.5 |
| 20260505095544 | 55 | 0 | 0.0 | 2.6 | 0.04 | 0.12 | 0.05 | 95 | 1010.5 |
| 20260505095047 | 55 | 0 | 0.0 | 1.7 | 0.04 | 0.12 | 0.05 | 95 | 1010.4 |
| 20260505094551 | 55 | 0 | 0.0 | 4.3 | 0.04 | 0.12 | 0.05 | 95 | 1010.4 |
| 20260505094044 | 55 | 0 | 0.0 | 4.3 | 0.03 | 0.11 | 0.03 | 95 | 1010.4 |
| 20260505093544 | 56 | 0 | 0.0 | 3.5 | 0.02 | 0.10 | 0.03 | 94 | 1010.4 |
| 20260505093058 | 56 | 0 | 0.0 | 3.5 | 0.02 | 0.10 | 0.03 | 95 | 1010.4 |
| 20260505092547 | 56 | 0 | 0.0 | 3.5 | 0.00 | 0.08 | 0.01 | 95 | 1010.4 |
| 20260505092046 | 56 | 0 | 0.0 | 3.5 | 0.00 | 0.08 | 0.01 | 95 | 1010.5 |
| 20260505091601 | 56 | 0 | 0.0 | 0.9 | 0.00 | 0.07 | 0.00 | 95 | 1010.5 |
| 20260505091046 | 56 | 0 | 0.0 | 3.5 | 0.00 | 0.07 | 0.00 | 94 | 1010.4 |
| 20260505090545 | 56 | 0 | 0.0 | 3.5 | 0.00 | 0.07 | 0.00 | 95 | 1010.5 |
| 20260505090052 | 57 | 0 | 0.0 | 0.9 | 0.00 | 0.07 | 0.00 | 95 | 1010.5 |
| 20260505085546 | 57 | 0 | 0.0 | 0.0 | 0.00 | 0.07 | 0.00 | 95 | 1010.5 |
| 20260505085047 | 57 | 0 | 0.0 | 0.0 | 0.00 | 0.07 | 0.00 | 95 | 1010.4 |
| 20260505084552 | 57 | 0 | 0.0 | 0.0 | 0.00 | 0.07 | 0.00 | 95 | 1010.5 |
| 20260505084049 | 57 | 0 | 0.0 | 0.0 | 0.00 | 0.07 | 0.00 | 95 | 1010.6 |
| 20260505083544 | 57 | 0 | 0.0 | 0.0 | 0.00 | 0.07 | 0.00 | 95 | 1010.5 |
| 20260505083056 | 56 | 0 | 0.0 | 0.0 | 0.00 | 0.07 | 0.00 | 95 | 1010.5 |
| 20260505082544 | 57 | 0 | 0.0 | 0.0 | 0.00 | 0.07 | 0.00 | 95 | 1010.5 |
| 20260505082044 | 57 | 0 | 0.0 | 0.0 | 0.00 | 0.07 | 0.00 | 95 | 1010.4 |
| 20260505081604 | 57 | 0 | 0.0 | 0.0 | 0.00 | 0.07 | 0.00 | 95 | 1010.4 |
| 20260505081046 | 57 | 0 | 0.0 | 0.0 | 0.00 | 0.07 | 0.00 | 95 | 1010.4 |
| 20260505080545 | 57 | 0 | 0.0 | 0.0 | 0.00 | 0.07 | 0.00 | 96 | 1010.5 |
| 20260505080050 | 57 | 0 | 0.0 | 0.0 | 0.00 | 0.07 | 0.00 | 96 | 1010.6 |
| 20260505075545 | 57 | 0 | 0.0 | 0.0 | 0.00 | 0.07 | 0.00 | 96 | 1010.6 |
| 20260505075045 | 56 | 0 | 0.0 | 0.0 | 0.00 | 0.07 | 0.00 | 96 | 1010.6 |
| 20260505074556 | 56 | 0 | 0.0 | 0.0 | 0.00 | 0.07 | 0.00 | 96 | 1010.5 |
| 20260505074045 | 57 | 0 | 0.0 | 0.0 | 0.00 | 0.07 | 0.00 | 96 | 1010.5 |
| 20260505073542 | 56 | 0 | 0.0 | 0.0 | 0.00 | 0.07 | 0.00 | 96 | 1010.6 |
| 20260505073122 | 56 | 0 | 0.0 | 0.0 | 0.00 | 0.07 | 0.00 | 96 | 1010.6 |
| 20260505072548 | 56 | 0 | 0.0 | 0.0 | 0.00 | 0.07 | 0.00 | 96 | 1010.5 |
| 20260505072046 | 56 | 0 | 0.0 | 0.0 | 0.00 | 0.07 | 0.00 | 96 | 1010.6 |
| 20260505071600 | 56 | 0 | 0.0 | 0.0 | 0.00 | 0.07 | 0.00 | 96 | 1010.7 |
| 20260505071045 | 56 | 0 | 0.0 | 0.0 | 0.00 | 0.07 | 0.00 | 96 | 1010.7 |
| 20260505070547 | 56 | 0 | 0.0 | 0.0 | 0.00 | 0.07 | 0.00 | 96 | 1010.8 |
| 20260505070101 | 56 | 0 | 0.0 | 0.0 | 0.00 | 0.07 | 0.00 | 96 | 1010.7 |
| 20260505065547 | 56 | 0 | 0.0 | 0.0 | 0.00 | 0.07 | 0.00 | 96 | 1010.9 |
| 20260505065044 | 56 | 0 | 0.0 | 0.0 | 0.00 | 0.07 | 0.00 | 96 | 1010.8 |
| 20260505064553 | 56 | 0 | 0.0 | 0.0 | 0.00 | 0.07 | 0.00 | 96 | 1010.7 |
| 20260505064047 | 56 | 0 | 0.0 | 0.0 | 0.00 | 0.07 | 0.00 | 96 | 1010.8 |
| 20260505063545 | 55 | 0 | 0.0 | 0.0 | 0.00 | 0.07 | 0.00 | 96 | 1010.8 |
| 20260505063050 | 56 | 0 | 0.0 | 0.0 | 0.00 | 0.07 | 0.00 | 96 | 1010.9 |
| 20260505062546 | 56 | 0 | 0.0 | 0.0 | 0.00 | 0.07 | 0.00 | 96 | 1010.9 |
| 20260505062051 | 56 | 0 | 0.0 | 0.0 | 0.00 | 0.07 | 0.00 | 96 | 1010.9 |
| 20260505061554 | 56 | 0 | 0.0 | 0.0 | 0.00 | 0.07 | 0.00 | 96 | 1010.8 |
| 20260505061045 | 56 | 0 | 0.0 | 0.0 | 0.00 | 0.07 | 0.00 | 96 | 1010.9 |
| 20260505060545 | 56 | 0 | 0.0 | 0.0 | 0.00 | 0.07 | 0.00 | 96 | 1011.0 |
| 20260505060057 | 56 | 0 | 0.0 | 0.0 | 0.00 | 0.07 | 0.00 | 96 | 1011.0 |
| 20260505055548 | 56 | 0 | 0.0 | 0.0 | 0.00 | 0.07 | 0.00 | 96 | 1010.9 |
| 20260505055045 | 56 | 0 | 0.0 | 0.0 | 0.00 | 0.07 | 0.00 | 96 | 1011.0 |
| 20260505054554 | 55 | 0 | 0.0 | 0.0 | 0.00 | 0.07 | 0.00 | 96 | 1011.0 |
| 20260505054044 | 56 | 0 | 0.0 | 0.0 | 0.00 | 0.07 | 0.00 | 96 | 1010.9 |
| 20260505053547 | 56 | 0 | 0.0 | 0.0 | 0.00 | 0.07 | 0.00 | 96 | 1011.0 |
| 20260505053052 | 56 | 0 | 0.0 | 0.0 | 0.00 | 0.07 | 0.00 | 96 | 1011.0 |
| 20260505052544 | 56 | 0 | 0.0 | 0.0 | 0.00 | 0.07 | 0.00 | 96 | 1011.0 |
| 20260505052046 | 55 | 0 | 0.0 | 0.0 | 0.00 | 0.07 | 0.00 | 96 | 1011.0 |
| 20260505051602 | 55 | 0 | 0.0 | 0.0 | 0.00 | 0.07 | 0.00 | 96 | 1011.0 |
| 20260505051045 | 55 | 0 | 0.0 | 0.0 | 0.00 | 0.07 | 0.00 | 96 | 1011.0 |
| 20260505050548 | 56 | 0 | 0.0 | 0.0 | 0.00 | 0.07 | 0.00 | 96 | 1011.0 |
| 20260505050107 | 56 | 0 | 0.0 | 0.0 | 0.00 | 0.07 | 0.00 | 96 | 1010.9 |
| 20260505041559 | 55 | 0 | 0.0 | 0.0 | 0.00 | 0.07 | 0.00 | 96 | 1011.0 |
| 20260505041045 | 55 | 0 | 0.0 | 0.0 | 0.00 | 0.07 | 0.00 | 96 | 1011.0 |
| 20260505040544 | 55 | 0 | 0.0 | 0.0 | 0.00 | 0.07 | 0.00 | 96 | 1011.0 |
| 20260505040057 | 55 | 0 | 0.0 | 0.0 | 0.00 | 0.07 | 0.00 | 96 | 1011.1 |
| 20260505035544 | 55 | 0 | 0.0 | 0.0 | 0.00 | 0.07 | 0.00 | 96 | 1011.1 |
| 20260505035045 | 55 | 0 | 0.0 | 0.0 | 0.00 | 0.07 | 0.00 | 96 | 1011.1 |
| 20260505034552 | 55 | 0 | 0.0 | 0.0 | 0.00 | 0.07 | 0.00 | 96 | 1011.0 |
| 20260505034045 | 55 | 0 | 0.0 | 0.0 | 0.00 | 0.07 | 0.00 | 96 | 1011.1 |
| 20260505033545 | 55 | 0 | 0.0 | 0.0 | 0.00 | 0.07 | 0.00 | 96 | 1011.2 |
| 20260505033054 | 55 | 0 | 0.0 | 0.0 | 0.00 | 0.07 | 0.00 | 96 | 1011.3 |
| 20260505032544 | 55 | 0 | 0.0 | 0.0 | 0.00 | 0.07 | 0.00 | 96 | 1011.3 |
| 20260505032050 | 55 | 0 | 0.0 | 0.0 | 0.00 | 0.07 | 0.00 | 96 | 1011.3 |
| 20260505031554 | 55 | 0 | 0.0 | 0.0 | 0.00 | 0.07 | 0.00 | 96 | 1011.3 |
| 20260505031045 | 55 | 0 | 0.0 | 0.0 | 0.00 | 0.07 | 0.00 | 96 | 1011.3 |
| 20260505030547 | 55 | 0 | 0.0 | 0.0 | 0.00 | 0.07 | 0.00 | 96 | 1011.4 |
| 20260505030052 | 55 | 0 | 0.0 | 0.0 | 0.00 | 0.07 | 0.00 | 96 | 1011.4 |
| 20260505025546 | 55 | 0 | 0.0 | 0.0 | 0.00 | 0.07 | 0.00 | 96 | 1011.5 |
| 20260505025045 | 55 | 0 | 0.0 | 0.0 | 0.00 | 0.07 | 0.00 | 96 | 1011.4 |
| 20260505024600 | 55 | 0 | 0.0 | 0.0 | 0.00 | 0.07 | 0.00 | 96 | 1011.3 |
| 20260505024045 | 56 | 0 | 0.0 | 0.0 | 0.00 | 0.07 | 0.00 | 96 | 1011.4 |
| 20260505023546 | 55 | 0 | 0.0 | 0.0 | 0.00 | 0.07 | 0.00 | 96 | 1011.4 |
| 20260505023054 | 55 | 0 | 0.0 | 0.0 | 0.00 | 0.07 | 0.00 | 96 | 1011.5 |
| 20260505022545 | 55 | 0 | 0.0 | 0.0 | 0.00 | 0.07 | 0.00 | 96 | 1011.6 |
| 20260505022045 | 55 | 0 | 0.0 | 0.0 | 0.00 | 0.07 | 0.00 | 96 | 1011.6 |
| 20260505021552 | 55 | 0 | 0.0 | 0.0 | 0.00 | 0.07 | 0.00 | 96 | 1011.6 |
| 20260505021045 | 55 | 0 | 0.0 | 0.0 | 0.00 | 0.07 | 0.00 | 96 | 1011.7 |
| 20260505020611 | 55 | 0 | 0.0 | 0.0 | 0.00 | 0.07 | 0.00 | 96 | 1011.8 |
| 20260505020052 | 55 | 0 | 0.0 | 0.0 | 0.00 | 0.07 | 0.00 | 96 | 1011.7 |
| 20260505015545 | 55 | 0 | 0.0 | 0.0 | 0.00 | 0.07 | 0.00 | 96 | 1011.6 |
| 20260505015045 | 55 | 0 | 0.0 | 0.0 | 0.00 | 0.07 | 0.00 | 96 | 1011.8 |
| 20260505014551 | 55 | 0 | 0.0 | 0.0 | 0.00 | 0.07 | 0.00 | 96 | 1011.8 |
| 20260505014046 | 55 | 0 | 0.0 | 0.0 | 0.00 | 0.07 | 0.00 | 96 | 1011.8 |
| 20260505013544 | 55 | 0 | 0.0 | 0.0 | 0.00 | 0.07 | 0.00 | 96 | 1011.7 |
| 20260505013111 | 55 | 0 | 0.0 | 0.0 | 0.00 | 0.07 | 0.00 | 96 | 1011.8 |
| 20260505012549 | 56 | 0 | 0.0 | 0.0 | 0.00 | 0.07 | 0.00 | 96 | 1011.8 |
| 20260505012045 | 55 | 0 | 0.0 | 0.0 | 0.00 | 0.07 | 0.00 | 95 | 1011.9 |
| 20260505011554 | 55 | 0 | 0.0 | 0.0 | 0.00 | 0.07 | 0.00 | 95 | 1011.9 |
| 20260505011043 | 55 | 0 | 0.0 | 0.0 | 0.00 | 0.07 | 0.00 | 95 | 1012.0 |
| 20260505010544 | 56 | 0 | 0.0 | 0.0 | 0.00 | 0.07 | 0.00 | 95 | 1012.1 |
| 20260505005546 | 56 | 0 | 0.0 | 0.0 | 0.00 | 0.07 | 0.00 | 96 | 1012.2 |
| 20260505005044 | 56 | 0 | 0.0 | 0.0 | 0.00 | 0.07 | 0.00 | 96 | 1012.2 |
| 20260505004552 | 56 | 0 | 0.0 | 0.0 | 0.00 | 0.07 | 0.00 | 96 | 1012.3 |
| 20260505004044 | 56 | 0 | 0.0 | 0.0 | 0.00 | 0.07 | 0.00 | 96 | 1012.3 |
| 20260505003548 | 56 | 0 | 0.0 | 0.0 | 0.00 | 0.07 | 0.00 | 95 | 1012.2 |
| 20260505003057 | 56 | 0 | 0.0 | 0.0 | 0.00 | 0.07 | 0.00 | 95 | 1012.3 |
| 20260505002545 | 56 | 0 | 0.0 | 0.0 | 0.00 | 0.07 | 0.00 | 95 | 1012.4 |
| 20260505002044 | 56 | 0 | 0.0 | 0.0 | 0.00 | 0.07 | 0.00 | 95 | 1012.3 |
| 20260505001551 | 56 | 0 | 0.0 | 0.0 | 0.00 | 0.07 | 0.00 | 95 | 1012.5 |
| 20260505001044 | 56 | 0 | 0.0 | 0.0 | 0.00 | 0.07 | 0.00 | 95 | 1012.5 |
| 20260505000546 | 56 | 0 | 0.0 | 0.0 | 0.00 | 0.07 | 0.00 | 95 | 1012.5 |
| 20260505000059 | 56 | 0 | 0.0 | 0.0 | 0.00 | 0.07 | 0.00 | 95 | 1012.6 |
| 20260504235544 | 56 | 0 | 0.0 | 0.0 | 0.00 | 0.07 | 0.00 | 95 | 1012.8 |
| 20260504235045 | 56 | 0 | 0.0 | 0.0 | 0.00 | 0.07 | 0.00 | 95 | 1012.8 |
| 20260504234549 | 56 | 0 | 0.0 | 0.0 | 0.00 | 0.07 | 0.00 | 95 | 1012.9 |
| 20260504234044 | 56 | 0 | 0.0 | 0.0 | 0.00 | 0.07 | 0.00 | 95 | 1012.9 |
| 20260504233543 | 56 | 0 | 0.0 | 0.0 | 0.00 | 0.07 | 0.00 | 95 | 1013.0 |
| 20260504233058 | 56 | 0 | 0.0 | 0.0 | 0.00 | 0.07 | 0.00 | 95 | 1012.9 |
| 20260504232546 | 56 | 0 | 0.0 | 0.0 | 0.00 | 0.07 | 0.00 | 95 | 1013.0 |
| 20260504232043 | 56 | 0 | 0.0 | 0.0 | 0.00 | 0.07 | 0.00 | 95 | 1013.1 |
| 20260504231552 | 56 | 0 | 0.0 | 0.0 | 0.00 | 0.07 | 0.00 | 95 | 1013.1 |
| 20260504231043 | 56 | 0 | 0.0 | 0.0 | 0.00 | 0.07 | 0.00 | 95 | 1013.1 |
| 20260504230549 | 56 | 0 | 0.0 | 0.0 | 0.00 | 0.07 | 0.00 | 95 | 1013.2 |
| 20260504225544 | 57 | 0 | 0.0 | 0.0 | 0.00 | 0.07 | 0.00 | 95 | 1013.3 |
| 20260504225046 | 57 | 0 | 0.0 | 0.0 | 0.00 | 0.07 | 0.00 | 95 | 1013.3 |
| 20260504224553 | 57 | 0 | 0.0 | 0.0 | 0.00 | 0.07 | 0.00 | 95 | 1013.3 |
| 20260504224045 | 57 | 0 | 0.0 | 0.0 | 0.00 | 0.07 | 0.00 | 95 | 1013.3 |
| 20260504223544 | 57 | 0 | 0.0 | 0.0 | 0.00 | 0.07 | 0.00 | 95 | 1013.4 |
| 20260504223100 | 57 | 0 | 0.0 | 0.0 | 0.00 | 0.07 | 0.00 | 95 | 1013.4 |
| 20260504222544 | 57 | 0 | 0.0 | 0.0 | 0.00 | 0.07 | 0.00 | 95 | 1013.5 |
| 20260504222046 | 57 | 0 | 0.0 | 0.0 | 0.00 | 0.07 | 0.00 | 95 | 1013.5 |
| 20260504221603 | 57 | 0 | 0.0 | 0.0 | 0.00 | 0.07 | 0.00 | 95 | 1013.5 |
| 20260504221044 | 57 | 0 | 0.0 | 0.0 | 0.00 | 0.07 | 0.00 | 95 | 1013.6 |
| 20260504220545 | 57 | 0 | 0.0 | 0.0 | 0.00 | 0.07 | 0.00 | 95 | 1013.6 |
| 20260504220058 | 57 | 0 | 0.0 | 0.0 | 0.00 | 0.07 | 0.00 | 95 | 1013.7 |
| 20260504215545 | 57 | 0 | 0.0 | 0.0 | 0.00 | 0.07 | 0.07 | 95 | 1013.7 |
| 20260504215046 | 57 | 0 | 0.0 | 0.0 | 0.00 | 0.07 | 0.07 | 95 | 1013.8 |
| 20260504214607 | 57 | 0 | 0.0 | 0.0 | 0.00 | 0.07 | 0.07 | 95 | 1013.8 |
| 20260504214045 | 57 | 0 | 0.0 | 0.0 | 0.00 | 0.07 | 0.07 | 95 | 1013.8 |
| 20260504213545 | 57 | 0 | 0.0 | 0.0 | 0.00 | 0.07 | 0.07 | 95 | 1013.8 |
| 20260504213057 | 57 | 0 | 0.0 | 0.0 | 0.00 | 0.07 | 0.07 | 95 | 1013.8 |
| 20260504212545 | 57 | 0 | 0.0 | 0.0 | 0.00 | 0.07 | 0.07 | 95 | 1013.9 |
| 20260504212044 | 57 | 0 | 0.0 | 0.0 | 0.00 | 0.07 | 0.07 | 95 | 1013.8 |
| 20260504211555 | 57 | 0 | 0.0 | 0.0 | 0.00 | 0.07 | 0.07 | 94 | 1013.8 |
| 20260504211048 | 57 | 0 | 0.0 | 0.0 | 0.00 | 0.07 | 0.07 | 94 | 1013.9 |
| 20260504210548 | 57 | 0 | 0.0 | 0.0 | 0.00 | 0.07 | 0.07 | 94 | 1014.0 |
| 20260504210052 | 57 | 0 | 0.0 | 0.0 | 0.00 | 0.06 | 0.06 | 94 | 1013.8 |
| 20260504205545 | 57 | 0 | 0.0 | 0.0 | 0.00 | 0.06 | 0.06 | 94 | 1013.9 |
| 20260504205044 | 57 | 0 | 0.0 | 0.0 | 0.00 | 0.06 | 0.06 | 94 | 1013.8 |
| 20260504204555 | 57 | 0 | 0.0 | 0.0 | 0.00 | 0.06 | 0.06 | 94 | 1013.9 |
| 20260504204044 | 57 | 0 | 0.0 | 0.0 | 0.00 | 0.06 | 0.06 | 94 | 1014.0 |
| 20260504203546 | 57 | 0 | 0.0 | 0.0 | 0.00 | 0.06 | 0.06 | 94 | 1013.9 |
| 20260504203058 | 57 | 0 | 0.0 | 0.0 | 0.00 | 0.06 | 0.06 | 94 | 1013.9 |
| 20260504202545 | 57 | 0 | 0.0 | 0.0 | 0.00 | 0.06 | 0.06 | 94 | 1013.8 |
| 20260504202046 | 57 | 0 | 0.0 | 0.0 | 0.00 | 0.06 | 0.06 | 94 | 1013.8 |
| 20260504201608 | 57 | 0 | 0.0 | 0.0 | 0.00 | 0.06 | 0.06 | 94 | 1013.9 |
| 20260504201049 | 57 | 0 | 0.0 | 0.0 | 0.00 | 0.06 | 0.06 | 94 | 1013.8 |
| 20260504200545 | 57 | 0 | 0.0 | 0.0 | 0.00 | 0.06 | 0.06 | 94 | 1013.8 |
| 20260504200053 | 57 | 0 | 0.0 | 0.0 | 0.00 | 0.06 | 0.06 | 94 | 1013.8 |
| 20260504195543 | 57 | 0 | 0.0 | 0.0 | 0.00 | 0.06 | 0.06 | 94 | 1013.8 |
| 20260504195046 | 57 | 0 | 0.0 | 0.0 | 0.00 | 0.06 | 0.06 | 94 | 1013.8 |
| 20260504194554 | 57 | 0 | 0.0 | 0.0 | 0.00 | 0.06 | 0.06 | 94 | 1013.8 |
| 20260504194045 | 57 | 0 | 0.0 | 0.0 | 0.00 | 0.06 | 0.06 | 94 | 1013.8 |
| 20260504193545 | 57 | 0 | 0.0 | 0.0 | 0.00 | 0.06 | 0.06 | 94 | 1013.7 |
| 20260504193051 | 57 | 0 | 0.0 | 0.0 | 0.00 | 0.06 | 0.06 | 93 | 1013.7 |
| 20260504192542 | 57 | 0 | 0.0 | 0.0 | 0.00 | 0.06 | 0.06 | 93 | 1013.6 |
| 20260504192046 | 57 | 0 | 0.0 | 0.0 | 0.00 | 0.06 | 0.06 | 93 | 1013.5 |
| 20260504191559 | 57 | 0 | 0.0 | 0.0 | 0.00 | 0.06 | 0.06 | 93 | 1013.4 |
| 20260504191045 | 57 | 0 | 0.0 | 0.0 | 0.00 | 0.06 | 0.06 | 93 | 1013.4 |
| 20260504190545 | 58 | 0 | 0.0 | 0.0 | 0.00 | 0.06 | 0.06 | 93 | 1013.5 |
| 20260504190114 | 58 | 0 | 0.0 | 0.0 | 0.00 | 0.06 | 0.06 | 93 | 1013.4 |
| 20260504185547 | 58 | 0 | 0.0 | 0.0 | 0.00 | 0.06 | 0.06 | 93 | 1013.3 |
| 20260504185045 | 58 | 0 | 0.0 | 0.0 | 0.00 | 0.06 | 0.06 | 93 | 1013.4 |
| 20260504184615 | 58 | 0 | 0.0 | 0.0 | 0.01 | 0.06 | 0.06 | 93 | 1013.4 |
| 20260504184045 | 58 | 0 | 0.0 | 0.0 | 0.00 | 0.05 | 0.05 | 92 | 1013.4 |
| 20260504183545 | 58 | 0 | 0.0 | 0.0 | 0.00 | 0.05 | 0.05 | 92 | 1013.6 |
| 20260504183052 | 58 | 0 | 0.0 | 0.0 | 0.00 | 0.05 | 0.05 | 92 | 1013.6 |
| 20260504182544 | 58 | 0 | 0.0 | 0.0 | 0.00 | 0.05 | 0.05 | 92 | 1013.7 |
| 20260504182044 | 58 | 0 | 0.0 | 0.0 | 0.01 | 0.05 | 0.05 | 92 | 1013.7 |
| 20260504181551 | 58 | 0 | 0.0 | 0.0 | 0.01 | 0.05 | 0.05 | 92 | 1013.7 |
| 20260504181045 | 58 | 0 | 0.0 | 0.0 | 0.02 | 0.05 | 0.05 | 92 | 1013.7 |
| 20260504180544 | 58 | 0 | 0.0 | 0.0 | 0.02 | 0.05 | 0.05 | 91 | 1013.8 |
| 20260504180053 | 58 | 0 | 0.0 | 0.0 | 0.03 | 0.05 | 0.05 | 91 | 1013.8 |
| 20260504175545 | 58 | 0 | 0.0 | 0.0 | 0.03 | 0.05 | 0.05 | 91 | 1013.7 |
| 20260504175045 | 59 | 0 | 0.0 | 0.0 | 0.03 | 0.05 | 0.05 | 91 | 1013.9 |
| 20260504174554 | 59 | 0 | 0.0 | 0.0 | 0.03 | 0.04 | 0.04 | 91 | 1013.9 |
| 20260504174045 | 59 | 0 | 0.0 | 0.0 | 0.03 | 0.04 | 0.04 | 90 | 1014.0 |
| 20260504173545 | 59 | 0 | 0.0 | 0.0 | 0.03 | 0.04 | 0.04 | 90 | 1013.9 |
| 20260504173049 | 59 | 0 | 0.0 | 0.0 | 0.03 | 0.04 | 0.04 | 90 | 1014.0 |
| 20260504172544 | 59 | 0 | 0.0 | 0.0 | 0.03 | 0.04 | 0.04 | 89 | 1014.0 |
| 20260504172045 | 59 | 0 | 0.0 | 0.0 | 0.03 | 0.03 | 0.03 | 88 | 1014.0 |
| 20260504171551 | 60 | 0 | 0.0 | 2.6 | 0.03 | 0.03 | 0.03 | 88 | 1014.0 |
| 20260504171045 | 60 | 0 | 0.0 | 7.0 | 0.02 | 0.03 | 0.03 | 87 | 1014.0 |
| 20260504170544 | 60 | 0 | 0.9 | 7.0 | 0.01 | 0.02 | 0.02 | 86 | 1014.0 |
| 20260504151045 | 65 | 0 | 0.0 | 7.8 | 0.00 | 0.00 | 0.00 | 66 | 1013.4 |
| 20260504150545 | 65 | 0 | 0.0 | 4.3 | 0.00 | 0.00 | 0.00 | 66 | 1013.5 |